EW3232 Weather Reports


Display with metric or nautical units.
time (UTC)temp
F
wind
direction
speed
MPH
gust
MPH
rain 1hr
in
rain 24hr
in
rain mn
in
humidity
%
barometer
mb
20260906153028 94 129 9.0 13.0 0.00 0.00 0.00 23 1021.5
20260906151544 94 105 11.0 19.0 0.00 0.00 0.00 24 1021.4
20260906150047 95 146 8.0 14.0 0.00 0.00 0.00 22 1021.5
20260906144534 95 169 10.0 18.0 0.00 0.00 0.00 22 1021.3
20260906143117 95 173 6.0 15.0 0.00 0.00 0.00 23 1021.4
20260906141645 96 145 11.0 16.0 0.00 0.00 0.00 24 1021.3
20260906140111 96 179 10.0 19.0 0.00 0.00 0.00 24 1021.5
20260906134625 96 127 10.0 20.0 0.00 0.00 0.00 24 1021.8
20260906131524 96 131 9.0 17.0 0.00 0.00 0.00 23 1021.8
20260906124512 96 110 8.0 15.0 0.00 0.00 0.00 22 1022.0
20260906123113 97 133 7.0 17.0 0.00 0.00 0.00 21 1022.1
20260906121621 97 155 12.0 17.0 0.00 0.00 0.00 21 1022.1
20260906120046 97 122 9.0 18.0 0.00 0.00 0.00 21 1022.2
20260906114541 97 108 12.0 17.0 0.00 0.00 0.00 21 1022.5
20260906113049 96 119 6.0 15.0 0.00 0.00 0.00 21 1022.5
20260906111637 96 160 5.0 11.0 0.00 0.00 0.00 21 1022.7
20260906110106 96 133 8.0 14.0 0.00 0.00 0.00 21 1022.7
20260906104652 95 137 8.0 16.0 0.00 0.00 0.00 21 1022.9
20260906103005 95 131 9.0 13.0 0.00 0.00 0.00 20 1023.0
20260906101519 94 134 8.0 15.0 0.00 0.00 0.00 20 1023.1
20260906100004 94 106 7.0 13.0 0.00 0.00 0.00 21 1023.2
20260906094607 94 85 7.0 11.0 0.00 0.00 0.00 20 1023.1
20260906093123 94 159 7.0 10.0 0.00 0.00 0.00 20 1023.1
20260906091643 92 106 4.0 9.0 0.00 0.00 0.00 21 1023.1
20260906090153 92 67 3.0 8.0 0.00 0.00 0.00 20 1023.0
20260906084608 91 84 2.0 4.0 0.00 0.00 0.00 20 1023.0
20260906083058 89 74 0.0 4.0 0.00 0.00 0.00 23 1022.9
20260906081615 89 101 0.0 2.0 0.00 0.00 0.00 23 1022.8
20260906080129 87 162 1.0 4.0 0.00 0.00 0.00 24 1022.8
20260906074650 85 183 1.0 5.0 0.00 0.00 0.00 24 1022.8
20260906073003 83 214 2.0 4.0 0.00 0.00 0.00 26 1022.7
20260906064506 74 235 0.0 6.0 0.00 0.00 0.00 35 1022.7
20260906063028 72 290 1.0 3.0 0.00 0.00 0.00 37 1022.6
20260906061532 70 276 1.0 3.0 0.00 0.00 0.00 39 1022.6
20260906060006 69 268 1.0 2.0 0.00 0.00 0.00 39 1022.5
20260906054533 69 276 0.0 3.0 0.00 0.00 0.00 40 1022.4
20260906053045 69 275 2.0 3.0 0.00 0.00 0.00 38 1022.4
20260906051556 70 279 1.0 3.0 0.00 0.00 0.00 39 1022.3
20260906050152 70 277 1.0 2.0 0.00 0.00 0.00 39 1022.2
20260906043014 71 277 0.0 2.0 0.00 0.00 0.00 38 1022.1
20260906041528 71 325 1.0 2.0 0.00 0.00 0.00 37 1022.1
20260906040019 71 325 0.0 2.0 0.00 0.00 0.00 36 1022.2
20260906034602 72 342 1.0 2.0 0.00 0.00 0.00 37 1022.2
20260906033109 73 244 0.0 2.0 0.00 0.00 0.00 37 1022.3
20260906031624 73 244 0.0 2.0 0.00 0.00 0.00 36 1022.4
20260906024604 76 219 0.0 4.0 0.00 0.00 0.00 34 1022.4
20260906023121 76 204 0.0 2.0 0.00 0.00 0.00 35 1022.4
20260906021603 77 209 0.0 4.0 0.00 0.00 0.00 33 1022.5
20260906020143 79 167 0.0 3.0 0.00 0.00 0.00 32 1022.5
20260906014504 80 251 2.0 9.0 0.00 0.00 0.00 31 1022.5
20260906013006 76 252 3.0 7.0 0.00 0.00 0.00 34 1022.6
20260906011525 74 257 0.0 2.0 0.00 0.00 0.00 40 1022.7
20260906010033 75 252 0.0 3.0 0.00 0.00 0.00 40 1022.7
20260906004516 74 250 1.0 2.0 0.00 0.00 0.00 40 1022.6
20260906003031 74 268 0.0 1.0 0.00 0.00 0.00 40 1022.8
20260906001636 76 261 0.0 2.0 0.00 0.00 0.00 38 1022.8
20260906000150 77 271 3.0 6.0 0.00 0.00 0.00 37 1022.9
20260905234534 77 266 4.0 8.0 0.00 0.00 0.00 37 1022.9
20260905233047 77 271 3.0 8.0 0.00 0.00 0.00 37 1023.1
20260905231533 77 262 5.0 7.0 0.00 0.00 0.00 37 1023.1
20260905230031 79 260 5.0 7.0 0.00 0.00 0.00 36 1023.2
20260905224610 80 263 6.0 9.0 0.00 0.00 0.00 36 1023.2
20260905223037 80 252 6.0 8.0 0.00 0.00 0.00 36 1023.1
20260905221538 81 259 5.0 7.0 0.00 0.00 0.00 36 1023.1
20260905220004 81 263 4.0 8.0 0.00 0.00 0.00 36 1023.1
20260905214700 80 264 5.0 8.0 0.00 0.00 0.00 39 1023.2
20260905213008 81 247 4.0 6.0 0.00 0.00 0.00 39 1023.3
20260905211543 81 271 3.0 6.0 0.00 0.00 0.00 40 1023.3
20260905210053 79 239 1.0 3.0 0.00 0.00 0.00 49 1023.2
20260905204553 78 222 0.0 6.0 0.00 0.00 0.00 47 1023.3
20260905203111 79 294 0.0 2.0 0.00 0.00 0.00 52 1023.3
20260905201637 78 245 1.0 4.0 0.00 0.00 0.00 52 1023.4
20260905200125 78 263 3.0 6.0 0.00 0.00 0.00 60 1023.3
20260905194625 78 268 3.0 6.0 0.00 0.00 0.00 58 1023.1
20260905193128 78 264 2.0 4.0 0.00 0.00 0.00 55 1023.1
20260905191641 79 275 3.0 7.0 0.00 0.00 0.00 51 1023.0
20260905190100 80 264 3.0 6.0 0.00 0.00 0.00 49 1022.9
20260905184619 81 265 3.0 4.0 0.00 0.00 0.00 46 1022.8
20260905183118 84 287 3.0 6.0 0.00 0.00 0.00 43 1022.7
20260905181636 85 268 1.0 5.0 0.00 0.00 0.00 41 1022.6
20260905180121 87 151 1.0 8.0 0.00 0.00 0.00 42 1022.6
20260905174625 88 165 4.0 11.0 0.00 0.00 0.00 39 1022.6
20260905173056 90 116 5.0 10.0 0.00 0.00 0.00 37 1022.5
20260905171640 91 125 4.0 9.0 0.00 0.00 0.00 35 1022.5
20260905170132 92 152 4.0 10.0 0.00 0.00 0.00 33 1022.3
20260905164637 93 189 4.0 12.0 0.00 0.00 0.00 30 1022.3
20260905163156 93 115 3.0 10.0 0.00 0.00 0.00 33 1022.2
20260905161528 93 140 7.0 10.0 0.00 0.00 0.00 32 1022.4
20260905160053 93 132 6.0 10.0 0.00 0.00 0.00 31 1022.5
20260905154614 92 158 3.0 11.0 0.00 0.00 0.00 35 1022.4